RH
80 80 78 76 73 82 80 86 91 96 95 95 95 95 96 95 96 97 97 94 95 91
84 78 77 83 91 93 92 91 92 94 95 96 97 97 97 97 98 98 97 97 95 91
80 81 81 89 92 90 92 92 94 95 96 97 98 98 99 99 99 99 99 99 97 96
74 79 80 83 85 89 91 89 92 94 96 98 98 99 98 99 98 99 98 99 97 97
73 75 80 85 86 86 91 89 91 93 95 96 97 98 98 98 98 98 98 98 98 97
77 80 80 81 86 90 92 90 94 95 96 96 98 98 98 98 98 98 97 98 97 96
83 83 86 90 93 96 94 92 95 95 94 97 98 98 99 98 98 98 96 95 94 94
85 91 94 98 97 97 95 95 93 98 99 99 99 98 98 96 97 97 97 96 92 90
99 99 99 99 99 99 99 99 99 99 99 99 99 100 99 97 96 94 95 90 88 84
99 99 99 99 99 99 99 99 99 99 99 99 98 99 99 98 95 91 89 84 72 62
99 99 99 99 99 99 99 99 98 99 98 98 97 96 92 87 78 80 79 75 71 75
99 99 99 99 99 99 98 98 97 96 98 97 97 93 89 79 77 76 76 69 68 67
97 98 98 97 97 96 93 93 90 92 92 94 94 91 85 75 74 73 68 62 64 71
92 94 94 94 93 93 92 90 93 92 88 84 84 82 76 72 75 75 71 63 66 67
Wind_Speed
10 7 8 8 8 5 7 5 5 7 9 10 9 9 9 9 9 8 8 11 9 7
11 11 11 10 6 5 5 5 6 7 6 6 7 9 10 8 8 7 10 11 10 7
12 13 12 8 10 10 7 6 6 6 7 6 8 10 9 7 6 7 4 4 7 7
13 13 12 12 12 11 9 11 13 12 10 9 10 9 10 10 11 12 10 8 9 8
17 15 16 17 17 14 14 12 13 12 12 11 13 10 10 10 8 10 10 10 9 8
13 14 17 15 13 13 13 13 12 13 15 15 13 10 9 9 9 8 8 8 8 8
13 14 12 11 9 10 11 12 13 14 15 10 9 8 7 7 7 7 7 7 8 8
9 7 7 6 6 7 9 9 11 8 6 7 8 7 9 8 9 9 8 7 7 6
6 5 5 5 5 5 4 4 5 5 6 6 4 9 11 10 8 8 9 9 10 10
6 6 5 5 5 5 5 5 5 5 5 6 5 10 10 12 8 9 10 9 7 8
7 6 5 5 5 5 4 5 5 6 7 8 7 14 15 17 11 11 9 9 8 8
5 6 6 6 6 5 7 7 7 7 9 10 9 16 15 14 11 10 10 7 8 7
6 6 7 7 7 7 8 9 8 11 11 13 10 13 15 11 7 9 7 7 8 11
8 8 8 8 7 8 10 11 11 12 11 12 11 12 16 13 7 6 5 5 4 3
Wind_Direction
204 212 224 224 230 229 233 226 184 191 204 209 207 205 194 209 215 207 216 221 210 208
206 209 216 222 213 219 221 224 213 207 220 221 209 201 201 207 209 194 210 214 212 207
203 209 213 207 215 220 221 212 208 211 212 212 217 204 190 193 186 196 209 235 202 204
207 208 212 222 228 224 221 216 215 213 206 210 230 198 200 206 194 198 195 181 194 191
209 206 212 215 218 219 222 217 219 213 212 215 234 208 199 201 195 192 186 182 179 172
217 212 219 221 222 217 213 219 217 212 214 218 221 195 193 194 182 175 192 186 174 170
212 210 213 215 211 203 209 215 215 220 225 220 192 193 181 179 165 163 164 167 158 162
215 205 205 198 200 206 206 212 220 206 178 174 180 179 179 167 161 161 148 129 97 79
139 148 156 144 147 150 157 152 149 157 152 158 174 167 155 152 145 141 117 109 102 100
136 130 134 139 144 160 157 128 129 123 133 122 108 119 115 112 114 107 109 110 107 98
141 145 140 138 136 118 122 126 117 114 111 101 87 98 98 91 92 92 79 88 91 97
125 129 127 119 111 103 108 98 86 83 88 96 96 102 100 98 92 87 89 86 89 105
87 94 98 102 102 96 93 89 82 71 68 80 84 80 85 88 99 102 102 94 90 92
77 82 88 86 84 90 89 86 78 77 64 69 71 76 82 85 83 101 103 111 117 111